SL-14 DEB

Satellite information

Favourite Embed

Satellite Type and Status

DEBRISIN ORBIT

Key statistics

Satellite SL-14 DEB at a glance.

Uptime

14240

Days in orbit

Revolutions

≈ 14.1

Per day

Orbit

LEO

Low Earth Orbit

Inclination

82.5

Latest

Satellite identification and parameters

Extended collection of information and parameters for SL-14 DEB.

Object identification

Identified? True

Debris? True

Object name: SL-14 DEB

International designator: 1986-101K

Object number (NORAD): 17844

Object ID (CCSDS): 17844

Country: COMMONWEALTH OF INDEPENDENT STATES (CIS)

Current information (Y/N): Y

RCS size: SMALL

Orbital parameters

Period: 102.08 minutes

Inclination: 82.5083 deg

SMA: 7235.237 km

Apoapsis: 870.229 km

Periapsis: 843.975 km

RAAN: 83.9077 deg

Eccentricy: 0.00181434

Argument of periapsis: 87.524 deg

Mean anomaly: 328.6673 deg

Mean motion: 14.10664166 rev/day

Mean motion (dot): 0.00001622 rev/day2

B* drag term: 0.00089903536 1/REarth

Two-line elements (TLE)

Creation date: Dec. 12, 2025, 10:14 a.m.

Reference frame: TEME

Reference center: EARTH

Epoch: Dec. 12, 2025, 7:04 a.m. UTC

TLE line 0: 0 SL-14 DEB

TLE line 1: 1 17844U 86101K 25346.29461622 .00001622 00000-0 89904-3 0 9996

TLE line 2: 2 17844 82.5083 83.9077 0018143 87.5240 328.6673 14.10664166991817

Live tracking on map

Real-time ground track for satellite SL-14 DEB.

In-orbit conjunctions

A list of the most updated potential collisions computed for object SL-14 DEB.

Target Orbit TCA Probability of collision Miss distance Type
FENGYUN 1C DEB SSO 2025-10-30 10:05:21 0.0003010215 42.0 (m) DEBRIS
DMSP 5D-2 F13 DEB SSO 2025-05-29 18:06:24 0.001926467 39.0 (m) DEBRIS
COSMOS 1275 DEB LEO 2024-10-18 06:33:22 0.0002863529 54.0 (m) DEBRIS
FENGYUN 1C DEB SSO 2024-09-29 19:41:54 0.0001048091 42.0 (m) DEBRIS

Associated space launch

Ionospheric research satellite

SL-14 DEB was lifted into orbit during the mission ‘Tsiklon-3 | Ionozond-E’, on board a Tsiklon-3 space rocket.

The launch took place on Dec. 18, 1986, 8 a.m. from 32/2.

For more information about the launch, click the button.

Launch to space Tsiklon-3 | Ionozond-E
Tsiklon-3 | Ionozond-E

Agency: N/A

Status: Launch Successful

Launch date: Dec. 18, 1986, 8 a.m. UTC

Rocket: Tsiklon-3

Launch pad: 32/2

Location: Plesetsk Cosmodrome, Russian Federation

...

Latest news about this satellite

There are no fresh news available about this satellite. Check back as we update our databases every day.


Newsletter sign-up

Weekly statistics, charts and insights to help you stay on top of the space industry.